Погода в Аньяне

Китай     36°05′51″N   114°21′01″E
темп.,
°C
ветер,
м/с
пор.,
м/с
влажн.,
%
обл.,
%
осадки,
мм/ч
давл.,
гПа
погр.,
м
26 сентября, вс
вс2623:00+16с51098100 17.0 1019496
02:00+16с61197100 28.8 1018514
05:00+16ссз51197100 9.9 1017536
08:00+16с61197100 21.3 1018541
11:00+17ссз51094100 3.8 1017582
14:00+17с41193100 6.3 1016580
17:00+18с41191100 0.2 1016675
20:00+17ссз31195100 1.0 1017524
27 сентября, пн
пн2723:00+17ссз3893100 0.3 1017314
02:00+17ссз239354 0.3 101677
05:00+16ссз2293100 0.0 101634
08:00+18с248796 0.0 1017222
11:00+20ссв2380100 0.0 1016424
14:00+22св2273100 0.0 1015695
17:00+22ссв2282100 0.0 101490
20:00+20с1187100 0.0 101513
28 сентября, вт
вт2823:00+19ссз1287100 0.1 101524
02:00+19с1188100 0.2 101417
05:00+19ссз3793100 0.7 1013237
08:00+17ссз5890100 2.9 1015323
11:00+16ссз3593100 2.8 1015298
14:00+16зсз1291100 3.9 1013132
17:00+17ю228870 0.3 1012142
20:00+15ююз22930 0.3 101221
29 сентября, ср
ср2923:00+15ююз22860 0.0 101116
02:00+15ююз22790 0.0 101014
05:00+15ююз12730 0.0 100911
08:00+18ююз12670 0.0 100962
11:00+24ююв33600 0.0 1009354
14:00+26ююв44605 0.0 1008516
17:00+25юв36730 0.0 1008194
20:00+21ю348774 0.0 101064
30 сентября, чт
чт3023:00+20ю238733 0.0 101064
02:00+19ю348911 0.0 100977
05:00+18ю2489100 0.0 100972
08:00+20ю4885100 0.0 1009229
11:00+24ю696698 0.0 1009585
14:00+26ю796097 0.0 1006766
17:00+24ю6107094 0.0 1005387
20:00+20ю36824 0.0 1006117